User: anonymous   Login
Location: Unspecified
(0.0000°N, 0.0000°E)
Time: 05:31:05
(UTC+00:00)
Language:

Uribyol 2 - Orbit

View from above orbital plane
View from above orbital plane
View from above satellite
View from above satellite

Ground track
Ground track

The orbit data is extracted from the following two-line orbital elements,

1 22828U 93061F   17177.87364003 +.00000012 +00000-0 +21981-4 0  9993
2 22828 098.7976 142.4095 0008733 261.4640 098.5552 14.30638884207096
Epoch (UTC): 26 June 2017 20:58:02
Eccentricity: 0.0008733
inclination: 98.7976°
perigee height: 783 km
apogee height: 796 km
right ascension of ascending node: 142.4095°
argument of perigee: 261.4640°
revolutions per day: 14.30638884
mean anomaly at epoch: 98.5552°
orbit number at epoch: 20709

The dashed part of the orbit path shows where the satellite is in the earth's shadow,  

DLR